When you browse on this site, cookies collect data to enhance your experience and personalize the content and advertising you see.
Visit our Privacy Policy to learn more. By continuing to use the site, you agree to this use of cookies and data.
  • En España
  • Lista de países
  • Para 7 días
  • Temperatura del agua
  • El tiempo en el mapa
  • Informadores
  • user-avatar
    Iniciar sesión

    Tiempo cada hora Yasnoe Utro

    Hoy, 12 Noviembre, Martes

    Tiempo Temperatura Precipitaciones Viento Presión Humedad
    00:00 +7°C° 0 mm 5 mps 745 mmHg 88%
    01:00 +8°C° 0 mm 5 mps 745 mmHg 87%
    02:00 +8°C° 0 mm 5 mps 746 mmHg 85%
    03:00 +7°C° 0 mm 5 mps 746 mmHg 86%
    04:00 +7°C° 0 mm 5 mps 746 mmHg 86%
    05:00 +6°C° 0 mm 4 mps 747 mmHg 87%
    06:00 +6°C° 0 mm 4 mps 747 mmHg 87%
    07:00 +6°C° 0 mm 4 mps 748 mmHg 87%
    08:00 +5°C° 0 mm 4 mps 749 mmHg 85%
    09:00 +6°C° 0 mm 4 mps 750 mmHg 82%
    10:00 +6°C° 0 mm 4 mps 750 mmHg 78%
    11:00 +6°C° 0 mm 4 mps 751 mmHg 75%
    12:00 +6°C° 0 mm 4 mps 751 mmHg 74%
    13:00 +7°C° 0 mm 3 mps 751 mmHg 73%
    14:00 +7°C° 0 mm 3 mps 752 mmHg 72%
    15:00 +6°C° 0 mm 2 mps 752 mmHg 76%
    16:00 +5°C° 0 mm 2 mps 752 mmHg 80%
    17:00 +5°C° 0 mm 1 mps 753 mmHg 84%
    18:00 +5°C° 0 mm 1 mps 753 mmHg 85%
    19:00 +5°C° 0 mm 1 mps 753 mmHg 86%
    20:00 +4°C° 0 mm 1 mps 754 mmHg 87%
    21:00 +4°C° 0 mm 1 mps 754 mmHg 87%
    22:00 +4°C° 0 mm 1 mps 754 mmHg 88%
    23:00 +3°C° 0 mm 1 mps 754 mmHg 88%

    Mañana, 13 Noviembre, Miércoles

    Tiempo Temperatura Precipitaciones Viento Presión Humedad
    00:00 +3°C° 0 mm 1 mps 755 mmHg 88%
    01:00 +3°C° 0 mm 1 mps 755 mmHg 89%
    02:00 +2°C° 0 mm 2 mps 756 mmHg 89%
    03:00 +2°C° 0 mm 2 mps 755 mmHg 89%
    04:00 +2°C° 0 mm 2 mps 755 mmHg 90%
    05:00 +1°C° 0 mm 3 mps 755 mmHg 90%
    06:00 +1°C° 0 mm 3 mps 755 mmHg 90%
    07:00 +1°C° 0 mm 3 mps 755 mmHg 90%
    08:00 0°C° 0 mm 4 mps 755 mmHg 90%
    09:00 +1°C° 0 mm 4 mps 755 mmHg 85%
    10:00 +3°C° 0 mm 4 mps 755 mmHg 81%
    11:00 +5°C° 0 mm 5 mps 755 mmHg 76%
    12:00 +5°C° 0 mm 5 mps 755 mmHg 75%
    13:00 +5°C° 0 mm 5 mps 755 mmHg 74%
    14:00 +6°C° 0 mm 4 mps 755 mmHg 72%
    15:00 +5°C° 0 mm 4 mps 755 mmHg 76%
    16:00 +4°C° 0 mm 4 mps 755 mmHg 80%
    17:00 +3°C° 0 mm 4 mps 755 mmHg 85%
    18:00 +2°C° 0 mm 5 mps 755 mmHg 85%
    19:00 +2°C° 0 mm 5 mps 755 mmHg 85%
    20:00 +2°C° 0 mm 5 mps 755 mmHg 86%
    21:00 +1°C° 0 mm 5 mps 755 mmHg 86%
    22:00 +1°C° 0 mm 5 mps 755 mmHg 87%
    23:00 +1°C° 0 mm 5 mps 755 mmHg 87%

    Pasado mañana, 14 Noviembre, Jueves

    Tiempo Temperatura Precipitaciones Viento Presión Humedad
    00:00 +1°C° 0 mm 5 mps 755 mmHg 87%
    01:00 +1°C° 0 mm 5 mps 755 mmHg 87%
    02:00 0°C° 0 mm 5 mps 755 mmHg 87%
    03:00 0°C° 0 mm 5 mps 755 mmHg 87%
    04:00 0°C° 0 mm 5 mps 754 mmHg 87%
    05:00 0°C° 0 mm 5 mps 754 mmHg 87%
    06:00 0°C° 0 mm 5 mps 755 mmHg 86%
    07:00 0°C° 0 mm 5 mps 755 mmHg 86%
    08:00 0°C° 0 mm 5 mps 755 mmHg 85%
    09:00 +1°C° 0 mm 5 mps 755 mmHg 80%
    10:00 +2°C° 0 mm 5 mps 755 mmHg 74%
    11:00 +5°C° 0 mm 5 mps 755 mmHg 69%
    12:00 +5°C° 0 mm 5 mps 755 mmHg 66%
    13:00 +5°C° 0 mm 5 mps 755 mmHg 64%
    14:00 +5°C° 0 mm 5 mps 755 mmHg 62%
    15:00 +4°C° 0 mm 4 mps 755 mmHg 66%
    16:00 +3°C° 0 mm 4 mps 755 mmHg 70%
    17:00 +3°C° 0 mm 4 mps 755 mmHg 74%
    18:00 +1°C° 0 mm 4 mps 755 mmHg 75%
    19:00 +1°C° 0 mm 5 mps 755 mmHg 75%
    20:00 +1°C° 0 mm 5 mps 756 mmHg 75%
    21:00 +1°C° 0 mm 5 mps 756 mmHg 76%
    22:00 +1°C° 0 mm 5 mps 756 mmHg 76%
    23:00 +1°C° 0 mm 5 mps 756 mmHg 77%

    15 Noviembre, Viernes

    Tiempo Temperatura Precipitaciones Viento Presión Humedad
    00:00 +1°C° 0 mm 5 mps 756 mmHg 78%
    01:00 +1°C° 0 mm 5 mps 756 mmHg 79%
    02:00 0°C° 0 mm 4 mps 756 mmHg 81%
    03:00 0°C° 0 mm 4 mps 756 mmHg 82%
    04:00 0°C° 0 mm 4 mps 756 mmHg 83%
    05:00 0°C° 0 mm 4 mps 756 mmHg 85%
    06:00 0°C° 0 mm 4 mps 756 mmHg 84%
    07:00 0°C° 0 mm 5 mps 756 mmHg 83%
    08:00 0°C° 0 mm 5 mps 757 mmHg 83%
    09:00 +1°C° 0 mm 5 mps 757 mmHg 78%
    10:00 +2°C° 0 mm 5 mps 757 mmHg 74%
    11:00 +3°C° 0 mm 6 mps 757 mmHg 69%
    12:00 +3°C° 0 mm 5 mps 756 mmHg 69%
    13:00 +5°C° 0 mm 5 mps 756 mmHg 69%
    14:00 +5°C° 0 mm 5 mps 756 mmHg 69%
    15:00 +3°C° 0 mm 5 mps 756 mmHg 73%
    16:00 +2°C° 0 mm 5 mps 756 mmHg 77%
    17:00 +3°C° 0 mm 4 mps 756 mmHg 80%
    18:00 +1°C° 0 mm 4 mps 756 mmHg 81%
    19:00 +1°C° 0 mm 4 mps 756 mmHg 81%
    20:00 +1°C° 0 mm 4 mps 756 mmHg 81%
    21:00 +1°C° 0 mm 4 mps 757 mmHg 82%
    22:00 +1°C° 0 mm 4 mps 757 mmHg 83%
    23:00 0°C° 0 mm 4 mps 757 mmHg 84%

    16 Noviembre, Sábado

    Tiempo Temperatura Precipitaciones Viento Presión Humedad
    00:00 0°C° 0 mm 4 mps 757 mmHg 84%
    01:00 0°C° 0 mm 4 mps 757 mmHg 84%
    02:00 0°C° 0 mm 4 mps 757 mmHg 83%
    03:00 0°C° 0 mm 4 mps 757 mmHg 84%
    04:00 -1°C° 0 mm 4 mps 757 mmHg 84%
    05:00 -1°C° 0 mm 4 mps 757 mmHg 85%
    06:00 -1°C° 0 mm 4 mps 757 mmHg 84%
    07:00 -1°C° 0 mm 4 mps 757 mmHg 83%
    08:00 -1°C° 0 mm 4 mps 757 mmHg 82%
    09:00 0°C° 0 mm 4 mps 758 mmHg 77%
    10:00 +1°C° 0 mm 4 mps 758 mmHg 73%
    11:00 +3°C° 0 mm 4 mps 758 mmHg 68%
    12:00 +3°C° 0 mm 4 mps 758 mmHg 68%
    13:00 +3°C° 0 mm 4 mps 757 mmHg 68%
    14:00 +3°C° 0 mm 4 mps 757 mmHg 68%
    15:00 +3°C° 0 mm 4 mps 757 mmHg 71%
    16:00 +1°C° 0 mm 4 mps 757 mmHg 75%
    17:00 +1°C° 0 mm 3 mps 757 mmHg 78%
    18:00 +1°C° 0 mm 3 mps 757 mmHg 79%
    19:00 +1°C° 0 mm 3 mps 757 mmHg 80%
    20:00 0°C° 0 mm 3 mps 757 mmHg 81%
    21:00 0°C° 0 mm 3 mps 758 mmHg 82%
    22:00 0°C° 0 mm 3 mps 758 mmHg 83%
    23:00 -1°C° 0 mm 3 mps 758 mmHg 84%

    17 Noviembre, Domingo

    Tiempo Temperatura Precipitaciones Viento Presión Humedad
    00:00 -1°C° 0 mm 3 mps 758 mmHg 86%
    01:00 -1°C° 0 mm 3 mps 758 mmHg 87%
    02:00 -1°C° 0 mm 3 mps 758 mmHg 88%
    03:00 -1°C° 0 mm 3 mps 758 mmHg 88%
    04:00 -1°C° 0 mm 3 mps 758 mmHg 88%
    05:00 -1°C° 0 mm 3 mps 758 mmHg 88%
    06:00 -1°C° 0 mm 3 mps 758 mmHg 87%
    07:00 -1°C° 0 mm 2 mps 759 mmHg 86%
    08:00 -1°C° 0 mm 2 mps 759 mmHg 85%
    09:00 0°C° 0 mm 3 mps 759 mmHg 79%
    10:00 +2°C° 0 mm 3 mps 759 mmHg 73%
    11:00 +3°C° 0 mm 3 mps 759 mmHg 68%
    12:00 +3°C° 0 mm 3 mps 759 mmHg 69%
    13:00 +3°C° 0 mm 3 mps 759 mmHg 69%
    14:00 +3°C° 0 mm 3 mps 758 mmHg 70%
    15:00 +2°C° 0 mm 3 mps 758 mmHg 75%
    16:00 +1°C° 0 mm 3 mps 758 mmHg 79%
    17:00 0°C° 0 mm 3 mps 758 mmHg 83%
    18:00 0°C° 0 mm 3 mps 758 mmHg 84%
    19:00 +1°C° 0 mm 2 mps 758 mmHg 85%
    20:00 +1°C° 0 mm 2 mps 758 mmHg 85%
    21:00 +1°C° 0 mm 2 mps 758 mmHg 86%
    22:00 -1°C° 0 mm 2 mps 758 mmHg 86%
    23:00 -1°C° 0 mm 2 mps 758 mmHg 86%
    Mostrar más